• In Belgium
  • List of Countries
  • For 7 days
  • Water Temperature
  • Satellite Maps
  • Weather Map
  • Weather Widgets
  • user-avatar
    Login

    Hourly Weather Algiers

    Today, 25 February, Sunday

    Time Temperature Precipitation Wind Pressure Humidity
    00:00 +7°C° 0 mm 2 mps 744 mmHg 90%
    01:00 +7°C° 0 mm 2 mps 744 mmHg 90%
    02:00 +8°C° 0 mm 1 mps 744 mmHg 90%
    03:00 +8°C° 0 mm 1 mps 745 mmHg 90%
    04:00 +7°C° 0 mm 1 mps 745 mmHg 90%
    05:00 +6°C° 0 mm 2 mps 745 mmHg 90%
    06:00 +5°C° 0 mm 2 mps 745 mmHg 90%
    07:00 +7°C° 0 mm 2 mps 745 mmHg 83%
    08:00 +9°C° 0 mm 3 mps 745 mmHg 75%
    09:00 +10°C° 0 mm 3 mps 746 mmHg 67%
    10:00 +11°C° 0 mm 3 mps 746 mmHg 60%
    11:00 +12°C° 0 mm 3 mps 746 mmHg 53%
    12:00 +14°C° 0 mm 4 mps 746 mmHg 49%
    13:00 +14°C° 0 mm 4 mps 745 mmHg 49%
    14:00 +14°C° 0 mm 4 mps 745 mmHg 49%
    15:00 +14°C° 0 mm 4 mps 745 mmHg 49%
    16:00 +12°C° 0 mm 4 mps 745 mmHg 56%
    17:00 +11°C° 0 mm 4 mps 745 mmHg 62%
    18:00 +9°C° 0 mm 3 mps 745 mmHg 69%
    19:00 +9°C° 0 mm 3 mps 745 mmHg 72%
    20:00 +8°C° 0 mm 3 mps 746 mmHg 74%
    21:00 +8°C° 0 mm 3 mps 746 mmHg 76%
    22:00 +8°C° 0 mm 3 mps 746 mmHg 75%
    23:00 +8°C° 0 mm 3 mps 746 mmHg 74%

    Tomorrow, 26 February, Monday

    Time Temperature Precipitation Wind Pressure Humidity
    00:00 +7°C° 0 mm 3 mps 746 mmHg 73%
    01:00 +7°C° 0 mm 3 mps 745 mmHg 71%
    02:00 +7°C° 0 mm 3 mps 745 mmHg 68%
    03:00 +7°C° 0 mm 3 mps 745 mmHg 65%
    04:00 +7°C° 0 mm 3 mps 745 mmHg 62%
    05:00 +7°C° 0 mm 3 mps 744 mmHg 58%
    06:00 +6°C° 0 mm 4 mps 744 mmHg 55%
    07:00 +9°C° 0 mm 3 mps 744 mmHg 50%
    08:00 +11°C° 0 mm 3 mps 744 mmHg 46%
    09:00 +13°C° 0 mm 3 mps 744 mmHg 41%
    10:00 +14°C° 0 mm 3 mps 744 mmHg 37%
    11:00 +17°C° 0 mm 2 mps 743 mmHg 33%
    12:00 +18°C° 0 mm 2 mps 743 mmHg 29%
    13:00 +18°C° 0 mm 2 mps 742 mmHg 30%
    14:00 +18°C° 0 mm 2 mps 741 mmHg 32%
    15:00 +18°C° 0 mm 2 mps 740 mmHg 33%
    16:00 +16°C° 0 mm 2 mps 740 mmHg 40%
    17:00 +14°C° 0 mm 2 mps 740 mmHg 47%
    18:00 +12°C° 0 mm 2 mps 740 mmHg 53%
    19:00 +10°C° 0 mm 2 mps 740 mmHg 54%
    20:00 +10°C° 0 mm 2 mps 739 mmHg 55%
    21:00 +9°C° 0 mm 2 mps 739 mmHg 56%
    22:00 +10°C° 0 mm 1 mps 739 mmHg 56%
    23:00 +10°C° 0 mm 1 mps 739 mmHg 55%

    Day after tomorrow, 27 February, Tuesday

    Time Temperature Precipitation Wind Pressure Humidity
    00:00 +10°C° 0 mm 1 mps 739 mmHg 55%
    01:00 +10°C° 0 mm 1 mps 739 mmHg 54%
    02:00 +10°C° 0 mm 1 mps 740 mmHg 54%
    03:00 +9°C° 0 mm 2 mps 740 mmHg 54%
    04:00 +10°C° 0 mm 2 mps 740 mmHg 55%
    05:00 +10°C° 0 mm 2 mps 740 mmHg 57%
    06:00 +10°C° 0 mm 2 mps 740 mmHg 58%
    07:00 +10°C° 0.5 mm 3 mps 740 mmHg 63%
    08:00 +10°C° 0.5 mm 3 mps 740 mmHg 68%
    09:00 +10°C° 0.5 mm 4 mps 741 mmHg 73%
    10:00 +10°C° 0.4 mm 3 mps 741 mmHg 74%
    11:00 +10°C° 0.4 mm 3 mps 741 mmHg 75%
    12:00 +10°C° 0.4 mm 2 mps 741 mmHg 76%
    13:00 +12°C° 0 mm 2 mps 741 mmHg 75%
    14:00 +13°C° 0 mm 2 mps 741 mmHg 73%
    15:00 +14°C° 0 mm 2 mps 742 mmHg 72%
    16:00 +14°C° 0 mm 1 mps 742 mmHg 76%
    17:00 +13°C° 0 mm 1 mps 743 mmHg 80%
    18:00 +12°C° 0 mm 1 mps 743 mmHg 84%
    19:00 +12°C° 0 mm 1 mps 743 mmHg 85%
    20:00 +12°C° 0 mm 2 mps 744 mmHg 86%
    21:00 +10°C° 0 mm 2 mps 744 mmHg 87%
    22:00 +10°C° 0 mm 2 mps 744 mmHg 87%
    23:00 +10°C° 0 mm 3 mps 744 mmHg 86%

    28 February, Wednesday

    Time Temperature Precipitation Wind Pressure Humidity
    00:00 +10°C° 0 mm 3 mps 744 mmHg 86%
    01:00 +10°C° 0 mm 3 mps 744 mmHg 85%
    02:00 +10°C° 0 mm 3 mps 743 mmHg 84%
    03:00 +10°C° 0 mm 4 mps 743 mmHg 83%
    04:00 +10°C° 0 mm 4 mps 743 mmHg 82%
    05:00 +10°C° 0 mm 4 mps 742 mmHg 81%
    06:00 +10°C° 0 mm 4 mps 742 mmHg 81%
    07:00 +12°C° 0 mm 4 mps 742 mmHg 74%
    08:00 +14°C° 0 mm 5 mps 742 mmHg 67%
    09:00 +16°C° 0 mm 5 mps 742 mmHg 61%
    10:00 +19°C° 0 mm 5 mps 742 mmHg 54%
    11:00 +21°C° 0 mm 4 mps 742 mmHg 47%
    12:00 +23°C° 0 mm 4 mps 741 mmHg 40%
    13:00 +25°C° 0 mm 4 mps 741 mmHg 38%
    14:00 +26°C° 0 mm 3 mps 740 mmHg 35%
    15:00 +27°C° 0 mm 3 mps 739 mmHg 33%
    16:00 +25°C° 0 mm 3 mps 739 mmHg 34%
    17:00 +22°C° 0 mm 3 mps 739 mmHg 35%
    18:00 +20°C° 0 mm 3 mps 738 mmHg 37%
    19:00 +19°C° 0 mm 3 mps 739 mmHg 35%
    20:00 +19°C° 0 mm 3 mps 739 mmHg 34%
    21:00 +18°C° 0 mm 4 mps 739 mmHg 32%
    22:00 +17°C° 0 mm 4 mps 739 mmHg 34%
    23:00 +17°C° 0 mm 4 mps 739 mmHg 36%

    1 March, Thursday

    Time Temperature Precipitation Wind Pressure Humidity
    00:00 +15°C° 0 mm 4 mps 739 mmHg 38%
    01:00 +15°C° 0 mm 4 mps 738 mmHg 39%
    02:00 +15°C° 0 mm 4 mps 738 mmHg 39%
    03:00 +14°C° 0 mm 3 mps 738 mmHg 39%
    04:00 +14°C° 0 mm 3 mps 737 mmHg 41%
    05:00 +14°C° 0 mm 3 mps 737 mmHg 42%
    06:00 +14°C° 0 mm 3 mps 737 mmHg 43%
    07:00 +16°C° 0 mm 3 mps 737 mmHg 44%
    08:00 +18°C° 0 mm 3 mps 737 mmHg 45%
    09:00 +20°C° 0 mm 2 mps 737 mmHg 47%
    10:00 +20°C° 0 mm 3 mps 737 mmHg 46%
    11:00 +21°C° 0 mm 4 mps 737 mmHg 46%
    12:00 +22°C° 0 mm 5 mps 737 mmHg 45%
    13:00 +21°C° 0.5 mm 5 mps 737 mmHg 51%
    14:00 +20°C° 0.5 mm 5 mps 737 mmHg 57%
    15:00 +19°C° 0.5 mm 4 mps 737 mmHg 63%
    16:00 +17°C° 0.1 mm 5 mps 738 mmHg 66%
    17:00 +16°C° 0.1 mm 6 mps 738 mmHg 68%
    18:00 +15°C° 0.1 mm 7 mps 738 mmHg 71%
    19:00 +15°C° 0 mm 8 mps 738 mmHg 73%
    20:00 +15°C° 0 mm 9 mps 739 mmHg 76%
    21:00 +13°C° 0 mm 10 mps 739 mmHg 78%
    22:00 +13°C° 0 mm 9 mps 740 mmHg 80%
    23:00 +13°C° 0 mm 9 mps 740 mmHg 81%

    2 March, Friday

    Time Temperature Precipitation Wind Pressure Humidity
    00:00 +12°C° 0 mm 9 mps 741 mmHg 83%
    01:00 +12°C° 0 mm 9 mps 741 mmHg 84%
    02:00 +12°C° 0 mm 9 mps 741 mmHg 85%
    03:00 +12°C° 0 mm 9 mps 742 mmHg 86%
    04:00 +12°C° 0 mm 8 mps 742 mmHg 86%
    05:00 +11°C° 0 mm 8 mps 742 mmHg 87%
    06:00 +11°C° 0 mm 8 mps 743 mmHg 87%
    07:00 +13°C° 0 mm 8 mps 743 mmHg 80%
    08:00 +16°C° 0 mm 7 mps 743 mmHg 73%
    09:00 +17°C° 0 mm 7 mps 744 mmHg 66%
    10:00 +18°C° 0 mm 7 mps 744 mmHg 62%
    11:00 +20°C° 0 mm 7 mps 744 mmHg 58%
    12:00 +22°C° 0 mm 6 mps 744 mmHg 54%
    13:00 +21°C° 0.1 mm 6 mps 743 mmHg 57%
    14:00 +21°C° 0.1 mm 5 mps 743 mmHg 59%
    15:00 +21°C° 0.1 mm 5 mps 743 mmHg 62%
    16:00 +20°C° 0.2 mm 4 mps 743 mmHg 66%
    17:00 +19°C° 0.2 mm 4 mps 743 mmHg 70%
    18:00 +18°C° 0.2 mm 3 mps 743 mmHg 73%
    19:00 +17°C° 0.4 mm 4 mps 744 mmHg 77%
    20:00 +16°C° 0.4 mm 5 mps 744 mmHg 80%
    21:00 +16°C° 0.4 mm 7 mps 745 mmHg 84%
    22:00 +16°C° 0.2 mm 6 mps 745 mmHg 85%
    23:00 +15°C° 0.2 mm 5 mps 745 mmHg 86%
    Show more